Location: Petruro
(41.0333°N, 14.7833°E)
Time: 09:48:33
(UTC+00:00)

Meteor 1-28 Rocket - Pass Details

Date: 20 June 2021
Orbit: 502 x 523 km, 97.4° (Epoch: 01 August)

Event Time Altitude Azimuth Distance (km) Brightness Sun altitude
Exits shadow 01:10:54 15° 139° (SE) 1,447 5.3 -19.0°
Maximum altitude 01:13:41 42° 73° (ENE) 759 4.3 -18.7°
Drops below altitude 10° 01:17:18 10° 2° (N) 1,769 6.8 -18.3°
Sets 01:19:28 0° 356° (N) 2,663 7.7 -18.1°
